TimePST,TemperatureF,Dew PointF,Humidity,Sea Level PressureIn,VisibilityMPH,Wind Direction,Wind SpeedMPH,Gust SpeedMPH,PrecipitationIn,Events,Conditions,WindDirDegrees,DateUTC
12:12 AM,57.2,55.4,94,29.95,5.0,NNE,4.6,-,N/A,,Scattered Clouds,20,2012-12-07 08:12:00
12:42 AM,57.2,55.4,94,29.94,5.0,NE,4.6,-,N/A,,Mostly Cloudy,40,2012-12-07 08:42:00
12:51 AM,57.0,55.0,93,29.94,4.0,NE,6.9,-,N/A,,Mostly Cloudy,50,2012-12-07 08:51:00
1:51 AM,57.9,55.0,90,29.94,5.0,NE,6.9,-,N/A,,Overcast,40,2012-12-07 09:51:00
2:51 AM,57.9,55.0,90,29.94,5.0,Calm,Calm,-,N/A,,Overcast,0,2012-12-07 10:51:00
3:51 AM,59.0,55.0,87,29.93,6.0,Calm,Calm,-,N/A,,Overcast,0,2012-12-07 11:51:00
4:51 AM,57.9,55.0,90,29.92,7.0,Calm,Calm,-,N/A,,Overcast,0,2012-12-07 12:51:00
5:51 AM,57.9,55.0,90,29.94,5.0,Calm,Calm,-,N/A,,Overcast,0,2012-12-07 13:51:00
6:51 AM,57.9,55.0,90,29.96,5.0,Calm,Calm,-,N/A,,Overcast,0,2012-12-07 14:51:00
7:46 AM,57.2,55.4,94,29.97,2.5,NE,3.5,-,N/A,,Overcast,50,2012-12-07 15:46:00
7:51 AM,57.9,55.0,90,29.97,2.5,NE,3.5,-,N/A,,Overcast,40,2012-12-07 15:51:00
8:04 AM,57.2,55.4,94,29.98,3.0,Calm,Calm,-,N/A,,Overcast,0,2012-12-07 16:04:00
8:51 AM,59.0,55.0,87,29.99,3.0,East,3.5,-,N/A,,Overcast,90,2012-12-07 16:51:00
9:34 AM,59.0,55.4,88,30.00,3.0,NNE,3.5,-,N/A,,Overcast,20,2012-12-07 17:34:00
9:51 AM,59.0,55.0,87,30.00,3.0,Calm,Calm,-,N/A,,Overcast,0,2012-12-07 17:51:00
10:51 AM,60.1,55.0,83,29.99,4.0,Calm,Calm,-,N/A,,Haze,0,2012-12-07 18:51:00
10:58 AM,60.8,55.4,82,29.98,3.0,Calm,Calm,-,N/A,,Haze,0,2012-12-07 18:58:00
11:51 AM,62.1,55.0,78,29.96,4.0,West,6.9,-,N/A,,Haze,280,2012-12-07 19:51:00
12:51 PM,61.0,54.0,78,29.95,5.0,West,8.1,-,N/A,,Haze,280,2012-12-07 20:51:00
1:51 PM,61.0,54.0,78,29.94,5.0,NW,10.4,-,N/A,,Haze,320,2012-12-07 21:51:00
2:26 PM,60.8,53.6,77,29.93,4.0,NW,10.4,-,N/A,,Haze,320,2012-12-07 22:26:00
2:51 PM,62.1,54.0,75,29.92,4.0,NNW,9.2,-,N/A,,Haze,330,2012-12-07 22:51:00
3:51 PM,62.1,54.0,75,29.92,4.0,NW,5.8,-,N/A,,Haze,320,2012-12-07 23:51:00
4:51 PM,61.0,55.0,81,29.91,4.0,NNW,5.8,-,N/A,,Haze,330,2012-12-08 00:51:00
5:51 PM,60.1,55.0,83,29.92,4.0,NW,5.8,-,N/A,,Haze,320,2012-12-08 01:51:00
6:51 PM,59.0,55.0,87,29.94,4.0,NNW,4.6,-,N/A,,Partly Cloudy,340,2012-12-08 02:51:00
7:51 PM,59.0,55.0,87,29.94,4.0,Calm,Calm,-,N/A,,Partly Cloudy,0,2012-12-08 03:51:00
8:51 PM,57.9,54.0,87,29.97,4.0,Calm,Calm,-,N/A,,Partly Cloudy,0,2012-12-08 04:51:00
9:24 PM,57.2,55.4,94,29.97,3.0,Calm,Calm,-,N/A,,Partly Cloudy,0,2012-12-08 05:24:00
9:33 PM,57.2,55.4,94,29.97,2.5,North,4.6,-,N/A,,Mostly Cloudy,360,2012-12-08 05:33:00
9:51 PM,57.9,55.0,90,29.97,2.5,NNE,3.5,-,N/A,,Overcast,20,2012-12-08 05:51:00
10:06 PM,57.2,55.4,94,29.97,2.5,Calm,Calm,-,N/A,,Overcast,0,2012-12-08 06:06:00
10:49 PM,57.2,55.4,94,29.97,3.0,Calm,Calm,-,N/A,,Overcast,0,2012-12-08 06:49:00
10:51 PM,57.9,55.0,90,29.97,3.0,East,3.5,-,N/A,,Overcast,80,2012-12-08 06:51:00
11:02 PM,57.2,55.4,94,29.97,2.5,ENE,3.5,-,N/A,,Overcast,60,2012-12-08 07:02:00
11:51 PM,59.0,55.9,90,29.96,2.0,Calm,Calm,-,N/A,,Overcast,0,2012-12-08 07:51:00